Canyon City, OR

12:26 AM PST on February 24, 2017 (GMT -0800)
Grant County Regional

Weather History for KGCD - April, 2014

Change the Weather History Date:

Monday, April 21, 2014

  Actual Average (KBNO) Record (KBNO)
Temperature  
Mean Temperature 57 °F -  
Max Temperature 66 °F 56 °F 83 °F (2009)
Min Temperature 48 °F 28 °F 11 °F (2008)
Degree Days  
Heating Degree Days 8    
Growing Degree Days 7 (Base 50)    
Moisture  
Dew Point 28 °F    
Average Humidity 32    
Maximum Humidity 54    
Minimum Humidity 23    
Precipitation  
Precipitation 0.00 in - - ()
Sea Level Pressure  
Sea Level Pressure 29.96 in    
Wind  
Wind Speed 8 mph (SE)    
Max Wind Speed 20 mph    
Max Gust Speed 32 mph    
Visibility 10 miles    
Events Rain    
Averages and records for this station are not official NWS values.
T = Trace of Precipitation, MM = Missing Value Source: NWS Daily Summary

Daily Weather History Graph

Daily Weather History Graph

Search for Another Location

Airport or City:

Trip Planner

Search our weather history database for the weather conditions in past years. The results will help you decide how hot, cold, wet, or windy it might be!

Date:

Astronomy

Apr. 21, 2014 Rise Set
Actual Time 6:01 AM PDT 7:47 PM PDT
Civil Twilight 5:31 AM PDT 8:18 PM PDT
Nautical Twilight 4:53 AM PDT 8:56 PM PDT
Astronomical Twilight 4:12 AM PDT 9:37 PM PDT
Moon 1:25 AM PDT (4/21) 11:31 AM PDT (4/21)
Length of Visible Light 14h 47m
Length of Day
13h 46m
Waning Gibbous, 56% of the Moon is Illuminated
Apr 21
Waning Gibbous
Apr 22
Last Quarter
Apr 28
New
May 6
First Quarter
May 14
Full

Hourly Weather History & Observations

Time (PDT) Temp. Dew Point Humidity Pressure Visibility Wind Dir Wind Speed Gust Speed Precip Events Conditions
12:16 AM 50.0 °F 28.4 °F 43% 30.16 in 10.0 mi ESE 4.6 mph - N/A   Clear
12:36 AM 48.2 °F 28.4 °F 46% 30.15 in 10.0 mi East 5.8 mph - N/A   Clear
12:56 AM 50.0 °F 26.6 °F 40% 30.15 in 10.0 mi ESE 4.6 mph - N/A   Clear
1:36 AM 51.8 °F 26.6 °F 38% 30.14 in 10.0 mi ENE 5.8 mph - N/A   Clear
1:58 AM 51.8 °F 26.6 °F 38% 30.13 in 10.0 mi East 5.8 mph - N/A   Clear
2:18 AM 50.0 °F 26.6 °F 40% 30.13 in 10.0 mi SE 3.5 mph - N/A   Clear
3:16 AM 55.4 °F 24.8 °F 31% 30.12 in 10.0 mi ESE 3.5 mph - N/A   Clear
3:36 AM 51.8 °F 26.6 °F 38% 30.11 in 10.0 mi ESE 6.9 mph - N/A   Clear
3:57 AM 51.8 °F 26.6 °F 38% 30.10 in 10.0 mi East 4.6 mph - N/A   Clear
4:16 AM 48.2 °F 26.6 °F 43% 30.10 in 10.0 mi East 3.5 mph - N/A   Clear
4:58 AM 51.8 °F 24.8 °F 35% 30.08 in 10.0 mi East 4.6 mph - N/A   Clear
5:16 AM 51.8 °F 24.8 °F 35% 30.07 in 10.0 mi East 5.8 mph - N/A   Clear
5:38 AM 51.8 °F 24.8 °F 35% 30.06 in 10.0 mi ENE 5.8 mph - N/A   Clear
5:56 AM 53.6 °F 24.8 °F 33% 30.06 in 10.0 mi NE 4.6 mph - N/A   Clear
6:16 AM 53.6 °F 24.8 °F 33% 30.06 in 10.0 mi East 3.5 mph - N/A   Clear
6:56 AM 51.8 °F 24.8 °F 35% 30.06 in 10.0 mi ENE 5.8 mph - N/A   Clear
7:56 AM 55.4 °F 26.6 °F 33% 30.05 in 10.0 mi North 9.2 mph - N/A   Mostly Cloudy
8:17 AM 55.4 °F 28.4 °F 36% 30.05 in 10.0 mi North 3.5 mph - N/A   Mostly Cloudy
8:36 AM 59.0 °F 26.6 °F 29% 30.04 in 10.0 mi ESE 13.8 mph 19.6 mph N/A   Mostly Cloudy
8:56 AM 60.8 °F 24.8 °F 25% 30.03 in 10.0 mi SSE 13.8 mph - N/A   Mostly Cloudy
9:16 AM 60.8 °F 23.0 °F 23% 30.03 in 10.0 mi SSE 13.8 mph 24.2 mph N/A   Mostly Cloudy
9:36 AM 57.2 °F 26.6 °F 31% 30.02 in 10.0 mi East 6.9 mph - N/A   Overcast
9:56 AM 60.8 °F 23.0 °F 23% 30.04 in 10.0 mi South 12.7 mph 19.6 mph N/A   Overcast
10:17 AM 60.8 °F 24.8 °F 25% 30.04 in 10.0 mi South 12.7 mph 20.7 mph N/A   Overcast
10:36 AM 60.8 °F 26.6 °F 27% 30.03 in 10.0 mi South 12.7 mph - N/A   Mostly Cloudy
10:56 AM 62.6 °F 24.8 °F 24% 30.02 in 10.0 mi SSE 13.8 mph - N/A   Mostly Cloudy
11:56 AM 62.6 °F 26.6 °F 26% 30.03 in 10.0 mi SSW 12.7 mph 16.1 mph N/A   Mostly Cloudy
12:36 PM 64.4 °F 28.4 °F 26% 29.98 in 10.0 mi SSE 5.8 mph - N/A   Mostly Cloudy
1:36 PM 66.2 °F 28.4 °F 24% 29.95 in 10.0 mi SSE 9.2 mph - N/A   Scattered Clouds
1:56 PM 66.2 °F 28.4 °F 24% 29.94 in 10.0 mi SSE 10.4 mph - N/A   Clear
2:18 PM 66.2 °F 28.4 °F 24% 29.93 in 10.0 mi SSE 10.4 mph 16.1 mph N/A   Clear
2:36 PM 66.2 °F 26.6 °F 23% 29.92 in 10.0 mi SSW 15.0 mph 23.0 mph N/A   Mostly Cloudy
2:56 PM 66.2 °F 26.6 °F 23% 29.92 in 10.0 mi South 16.1 mph 21.9 mph N/A   Mostly Cloudy
3:18 PM 66.2 °F 26.6 °F 23% 29.91 in 10.0 mi SW 13.8 mph 17.3 mph N/A   Scattered Clouds
3:36 PM 66.2 °F 28.4 °F 24% 29.90 in 10.0 mi SW 13.8 mph 23.0 mph N/A   Scattered Clouds
3:56 PM 66.2 °F 26.6 °F 23% 29.89 in 10.0 mi SSW 12.7 mph 24.2 mph N/A   Clear
4:36 PM 64.4 °F 26.6 °F 24% 29.87 in 10.0 mi South 9.2 mph 28.8 mph N/A   Scattered Clouds
5:16 PM 66.2 °F 28.4 °F 24% 29.84 in 10.0 mi SSE 15.0 mph 26.5 mph N/A   Clear
5:36 PM 66.2 °F 26.6 °F 23% 29.83 in 10.0 mi SE 16.1 mph 32.2 mph N/A   Clear
5:58 PM 66.2 °F 26.6 °F 23% 29.82 in 10.0 mi SSE 18.4 mph 21.9 mph N/A   Clear
6:16 PM 64.4 °F 26.6 °F 24% 29.81 in 10.0 mi SSE 12.7 mph 23.0 mph N/A   Clear
6:36 PM 64.4 °F 28.4 °F 26% 29.81 in 10.0 mi South 5.8 mph - N/A   Clear
7:36 PM 62.6 °F 28.4 °F 27% 29.80 in 10.0 mi South 16.1 mph 19.6 mph N/A   Overcast
7:56 PM 62.6 °F 28.4 °F 27% 29.79 in 10.0 mi SSE 15.0 mph 21.9 mph N/A   Scattered Clouds
8:16 PM 62.6 °F 28.4 °F 27% 29.80 in 10.0 mi South 19.6 mph 24.2 mph N/A   Mostly Cloudy
9:16 PM 62.6 °F 30.2 °F 30% 29.79 in 10.0 mi South 15.0 mph 19.6 mph N/A   Mostly Cloudy
9:36 PM 60.8 °F 30.2 °F 31% 29.80 in 10.0 mi SSW 9.2 mph 19.6 mph N/A   Overcast
10:16 PM 55.4 °F 39.2 °F 54% 29.82 in 10.0 mi South 18.4 mph 25.3 mph N/A Rain Light Rain
10:36 PM 55.4 °F 39.2 °F 54% 29.81 in 10.0 mi South 16.1 mph 24.2 mph N/A   Overcast
10:58 PM 55.4 °F 39.2 °F 54% 29.78 in 10.0 mi SSE 9.2 mph - N/A   Scattered Clouds
11:16 PM 55.4 °F 37.4 °F 51% 29.76 in 10.0 mi SSE 11.5 mph 18.4 mph N/A   Clear
11:36 PM 55.4 °F 37.4 °F 51% 29.76 in 10.0 mi SSE 12.7 mph - N/A   Clear
11:56 PM 57.2 °F 35.6 °F 44% 29.76 in 10.0 mi SE 8.1 mph - N/A   Mostly Cloudy